Location: Laas
(43.4693°N, 0.3073°E)
Time: 15:48:43
(UTC+00:00)

H-2A R/B - Pass Details

Date: 25 October 2020
Orbit: 733 x 837 km, 98.2° (Epoch: 24 November)

Event Time Altitude Azimuth Distance (km) Brightness Sun altitude
Exits shadow 20:01:08 - 202° (SSW) 2,978 5.1 -33.4°
Reaches altitude 10° 20:02:50 10° 211° (SSW) 2,417 4.7 -33.7°
Maximum altitude 20:07:16 26° 267° (W) 1,587 4.1 -34.5°
Drops below altitude 10° 20:11:47 10° 323° (NW) 2,457 5.2 -35.3°
Sets 20:14:34 0° 336° (NNW) 3,398 5.9 -35.8°
